CZ-6A DEB, 56601

Orbit data source: Space-Track

CZ-6A DEB, 56601 is space debris in SSO originally from a launch on Fri, 11 Nov 2022 UTC launched from the Taiyaun Space Center, China (TSC). Debris objects in space refer to the collection of defunct objects orbiting the Earth. Examples of debris include non-operational satellites, rocket bodies, and fragments generated from explosions, collisions, or faulty payload assembly.

Loading next visibility...
Identifier
56601, 2022-151ADZ
Orbit
SSO
Country
Flag of CNCN / PRC
Related business
Manufacturer
SAST
Mission
Spacecraft
Bus & Motor
Unknown
Mass
Unknown
Launch date (UTC)
2022-11-11 (4 years ago)
Launch vehicle
Unknown
Launch site
Taiyaun Space Center, China (TSC)
Object type
Payload
Rocket body
Debris
Shape & HBR
Unknown shape, 0.1 m
Radar Cross Section
Small (<0.1 m²)

Expand to show TLE details & history
Last TLE update: 2 days ago

TLE from 2 days ago
0 CZ-6A DEB
1 56601U 22151ADZ 26171.01042178  .00000468  00000-0  16961-3 0  9993
2 56601  98.6005 191.5746 0114477  34.4443 326.4094 14.34392043165077
Epoch: 2026-06-20T00:15Z
TLE epoch observation values (Epoch: 2026-06-20T00:15:00.441Z)
Latitude
Longitude
-80.40842°
Altitude
712.07 km
Speed
7.535 km/s
True Right ascension
12h 46m 17s
True Declination
0° 00' 00"
Sunlit
Object was in daylight at epoch
Visualization orbit readout
Latitude
Unknown
Longitude
Unknown
Altitude
Unknown
Speed
Unknown
Apparent Right ascension
Unknown
Apparent Declination
Unknown
Sunlit
N/A
Visualization observer readout
Local Sidereal Time
21:50:07
Azimuth
Unknown
Elevation
Unknown
Doppler factor
Unknown
Orbital elements
Apogee altitude
856.099 km
Perigee altitude
692.343 km
Semi-major axis
7,152.358 km
Eccentricity
0.01145
Inclination
98.6005°
RAAN
191.5746°
Arg. of periapsis
34.4443°
True anomaly
325.6749°
Mean anomaly
326.4094°
Eccentric anomaly
326.04303°
Mean motion
3.58814 °/min
Orbital period
100.33 mins
BSTAR
0.00016961
Loading maneuver chart data...
Computing Atmospheric mass density...
Loading historical data...
Loading historical data...
Loading historical data...
Loading historical data...
Loading historical data...
Loading historical data...
Loading historical data...

Documentation

Showing up to 5 results
|